Tracking 28081 objects as of 27-Sep-2023
HD Live streaming from Space Station
objects crossing your sky now

KSM1-C

Track KSM1-C now!
10-day predictions


NORAD ID: 46906
Int'l Code: 2020-081B
Perigee: 556.1 km
Apogee: 563.0 km
Inclination: 36.9 °
Period: 95.7 minutes
Semi major axis: 6930 km
RCS: Unknown
Launch date: November 7, 2020
Source: Luxembourg (LUXE)
Launch site: SRIHARIKOTA (SRI)
Your satellite tracking list
Your tracking list is empty




NASA's NSSDC Master Catalog

Two Line Element Set (TLE):
1 46906U 20081B   23269.48065261  .00009222  00000-0  64698-3 0  9991
2 46906  36.8960 333.6379 0005035 242.8836 117.1393 15.04701963158206
Source of the keplerian elements: AFSPC